TimeEST,TemperatureF,Dew PointF,Humidity,Sea Level PressureIn,VisibilityMPH,Wind Direction,Wind SpeedMPH,Gust SpeedMPH,PrecipitationIn,Events,Conditions,WindDirDegrees,DateUTC
12:53 AM,72.0,63.0,73,30.12,10.0,ENE,17.3,24.2,N/A,,Mostly Cloudy,60,2013-11-25 05:53:00
1:53 AM,72.0,63.0,73,30.11,9.0,ENE,15.0,27.6,N/A,,Overcast,70,2013-11-25 06:53:00
2:53 AM,71.1,62.1,73,30.11,10.0,ENE,17.3,27.6,N/A,,Overcast,70,2013-11-25 07:53:00
3:53 AM,72.0,61.0,68,30.11,10.0,ENE,23.0,28.8,N/A,,Overcast,60,2013-11-25 08:53:00
4:53 AM,71.1,61.0,70,30.12,10.0,ENE,18.4,27.6,N/A,,Overcast,60,2013-11-25 09:53:00
5:53 AM,71.1,60.1,68,30.12,10.0,ENE,20.7,28.8,N/A,,Mostly Cloudy,60,2013-11-25 10:53:00
6:53 AM,71.1,60.1,68,30.13,10.0,ENE,19.6,26.5,N/A,,Scattered Clouds,70,2013-11-25 11:53:00
7:53 AM,71.1,60.1,68,30.15,10.0,East,18.4,28.8,N/A,,Scattered Clouds,80,2013-11-25 12:53:00
8:53 AM,72.0,61.0,68,30.17,10.0,East,20.7,27.6,N/A,,Mostly Cloudy,80,2013-11-25 13:53:00
9:53 AM,72.0,63.0,73,30.19,10.0,ENE,18.4,28.8,N/A,,Overcast,70,2013-11-25 14:53:00
10:53 AM,73.0,63.0,71,30.19,10.0,East,19.6,28.8,N/A,,Overcast,80,2013-11-25 15:53:00
11:53 AM,75.0,64.0,69,30.17,10.0,East,21.9,27.6,N/A,,Mostly Cloudy,80,2013-11-25 16:53:00
12:53 PM,73.9,64.0,71,30.14,10.0,ENE,18.4,25.3,N/A,,Overcast,70,2013-11-25 17:53:00
1:53 PM,75.0,64.9,71,30.11,10.0,East,17.3,27.6,N/A,,Mostly Cloudy,80,2013-11-25 18:53:00
2:53 PM,73.9,64.9,73,30.11,10.0,ENE,13.8,25.3,N/A,,Mostly Cloudy,70,2013-11-25 19:53:00
3:53 PM,73.0,64.9,76,30.10,7.0,East,16.1,24.2,0.00,,Mostly Cloudy,80,2013-11-25 20:53:00
4:53 PM,73.0,66.0,79,30.10,9.0,ENE,17.3,26.5,N/A,,Overcast,70,2013-11-25 21:53:00
5:53 PM,73.0,66.0,79,30.09,10.0,ENE,17.3,28.8,N/A,,Mostly Cloudy,70,2013-11-25 22:53:00
5:58 PM,73.4,66.2,78,30.09,9.0,ENE,18.4,26.5,N/A,,Mostly Cloudy,70,2013-11-25 22:58:00
6:11 PM,73.4,66.2,78,30.09,9.0,East,18.4,29.9,N/A,,Overcast,80,2013-11-25 23:11:00
6:43 PM,73.4,66.2,78,30.09,9.0,ENE,16.1,28.8,N/A,,Overcast,70,2013-11-25 23:43:00
6:53 PM,73.0,66.9,81,30.09,10.0,ENE,17.3,27.6,N/A,,Mostly Cloudy,70,2013-11-25 23:53:00
7:53 PM,73.0,68.0,84,30.10,7.0,East,17.3,23.0,0.03,,Overcast,80,2013-11-26 00:53:00
8:33 PM,73.4,68.0,83,30.11,9.0,East,11.5,24.2,N/A,,Overcast,80,2013-11-26 01:33:00
8:53 PM,73.0,66.9,81,30.10,10.0,East,21.9,27.6,N/A,,Overcast,90,2013-11-26 01:53:00
9:38 PM,73.4,68.0,83,30.10,9.0,East,18.4,26.5,0.00,,Overcast,90,2013-11-26 02:38:00
9:53 PM,72.0,66.9,84,30.10,7.0,East,23.0,35.7,0.00,Rain,Light Rain,90,2013-11-26 02:53:00
10:53 PM,73.0,68.0,84,30.07,10.0,East,21.9,28.8,0.00,,Mostly Cloudy,90,2013-11-26 03:53:00
11:53 PM,72.0,69.1,91,30.05,8.0,East,16.1,28.8,0.00,,Mostly Cloudy,90,2013-11-26 04:53:00